Satellite Precipitation Estimates (TXUS20 KWBC)
Issued by NWS

Home | Current Version | Previous Version | Text Only | Print | Product List | Glossary On
Versions: 1
000
SPTD31 TTPP 261714
SPECI
TTCP 261708Z 08017KT 2500 SHRA VCSH SCT016 BKN038 26/23 Q1016 NOSIG=



USA.gov is the U.S. government's official web portal to all federal, state and local government web resources and services.